Weather History for KFET - January, 2014

Change the Weather History Date:

Sunday, January 12, 2014

  Actual Average Record
Temperature  
Mean Temperature 45 °F -  
Max Temperature 53 °F 31 °F 65 °F (1986)
Min Temperature 37 °F 11 °F -27 °F (1974)
Degree Days  
Heating Degree Days 20    
Moisture  
Dew Point 31 °F    
Average Humidity 62    
Maximum Humidity 75    
Minimum Humidity 42    
Precipitation  
Precipitation 0.00 in - - ()
Sea Level Pressure  
Sea Level Pressure 29.56 in    
Wind  
Wind Speed 10 mph (SW)    
Max Wind Speed 17 mph    
Max Gust Speed 22 mph    
Visibility 10 miles    
Events Rain    
Averages and records for this station are not official NWS values.
T = Trace of Precipitation, MM = Missing Value Source: NWS Daily Summary

Daily Weather History Graph

Daily Weather History Graph

Search for Another Location

Airport or City:

Trip Planner

Search our weather history database for the weather conditions in past years. The results will help you decide how hot, cold, wet, or windy it might be!

Date:

Astronomy

Jan. 12, 2014 Rise Set
Actual Time 7:51 AM CST 5:18 PM CST
Civil Twilight 7:20 AM CST 5:48 PM CST
Nautical Twilight 6:46 AM CST 6:23 PM CST
Astronomical Twilight 6:12 AM CST 6:56 PM CST
Moon 2:47 PM CST (1/12) 4:50 AM CST (1/12)
Length of Visible Light 10h 28m
Length of Day
9h 26m
Waxing Gibbous, 90% of the Moon is Illuminated
Jan 12
Waxing Gibbous
Jan 15
Full
Jan 23
Last Quarter
Jan 30
New
Feb 6
First Quarter

Hourly Weather History & Observations

Time (CST) Temp. Windchill Dew Point Humidity Pressure Visibility Wind Dir Wind Speed Gust Speed Precip Events Conditions
12:15 AM 38.3 °F 29.7 °F 30.4 °F 73% 29.67 in 10.0 mi South 15.0 mph 20.7 mph N/A   Clear
12:35 AM 38.5 °F 29.2 °F 30.4 °F 73% 29.65 in 10.0 mi South 17.3 mph 21.9 mph N/A   Clear
12:55 AM 38.3 °F 29.7 °F 30.2 °F 73% 29.63 in 10.0 mi SSE 15.0 mph - N/A   Clear
1:15 AM 38.5 °F 30.7 °F 30.2 °F 72% 29.62 in 10.0 mi SSE 12.7 mph 20.7 mph N/A   Clear
1:35 AM 38.5 °F 31.1 °F 30.0 °F 72% 29.60 in 10.0 mi SSE 11.5 mph - N/A   Clear
1:55 AM 38.7 °F 30.9 °F 29.8 °F 71% 29.59 in 10.0 mi SSE 12.7 mph 17.3 mph N/A   Clear
2:15 AM 38.7 °F 30.5 °F 29.7 °F 70% 29.59 in 10.0 mi SSE 13.8 mph 20.7 mph N/A   Clear
2:35 AM 38.8 °F 30.4 °F 29.3 °F 69% 29.57 in 10.0 mi SSE 15.0 mph - N/A   Clear
2:55 AM 39.2 °F 31.6 °F 29.3 °F 68% 29.57 in 10.0 mi South 12.7 mph 18.4 mph N/A   Clear
3:15 AM 39.6 °F 33.0 °F 29.1 °F 66% 29.57 in 10.0 mi South 10.4 mph - N/A   Clear
3:35 AM 40.5 °F 33.6 °F 28.8 °F 63% 29.56 in 10.0 mi South 11.5 mph 18.4 mph N/A   Clear
3:55 AM 40.3 °F 34.9 °F 28.4 °F 63% 29.56 in 10.0 mi South 8.1 mph 17.3 mph N/A   Clear
4:15 AM 39.7 °F 34.9 °F 28.2 °F 63% 29.55 in 10.0 mi South 6.9 mph - N/A   Clear
4:35 AM 40.3 °F 36.3 °F 28.4 °F 63% 29.54 in 10.0 mi South 5.8 mph - N/A   Clear
4:55 AM 40.8 °F 33.7 °F 28.2 °F 61% 29.52 in 10.0 mi South 12.7 mph 19.6 mph N/A   Clear
5:15 AM 41.0 °F 34.3 °F 28.2 °F 60% 29.51 in 10.0 mi South 11.5 mph 19.6 mph N/A   Clear
5:35 AM 40.5 °F 35.1 °F 28.2 °F 62% 29.53 in 10.0 mi SSW 8.1 mph 11.5 mph N/A   Clear
5:55 AM 39.6 °F 33.5 °F 28.4 °F 64% 29.51 in 10.0 mi South 9.2 mph 17.3 mph N/A   Clear
6:15 AM 39.6 °F 32.5 °F 28.4 °F 64% 29.49 in 10.0 mi South 11.5 mph 16.1 mph N/A   Clear
6:35 AM 39.6 °F 33.5 °F 28.0 °F 63% 29.49 in 10.0 mi South 9.2 mph 18.4 mph N/A   Clear
6:55 AM 39.6 °F 33.5 °F 27.9 °F 63% 29.49 in 10.0 mi South 9.2 mph - N/A   Clear
7:15 AM 39.4 °F 33.8 °F 27.9 °F 63% 29.49 in 10.0 mi South 8.1 mph - N/A   Clear
7:35 AM 38.7 °F 34.3 °F 27.5 °F 64% 29.49 in 10.0 mi South 5.8 mph - N/A   Clear
7:55 AM 38.1 °F 33.7 °F 27.5 °F 66% 29.50 in 10.0 mi South 5.8 mph - N/A   Clear
8:15 AM 37.6 °F 33.1 °F 27.5 °F 67% 29.49 in 10.0 mi South 5.8 mph - N/A   Clear
8:35 AM 37.4 °F 31.4 °F 27.5 °F 67% 29.50 in 10.0 mi South 8.1 mph - N/A   Clear
8:55 AM 37.9 °F 33.5 °F 27.5 °F 66% 29.50 in 10.0 mi SSW 5.8 mph - N/A   Clear
9:15 AM 38.8 °F 35.4 °F 27.7 °F 64% 29.49 in 10.0 mi SSW 4.6 mph - N/A   Clear
9:35 AM 40.6 °F 36.0 °F 28.4 °F 62% 29.49 in 10.0 mi SSW 6.9 mph - N/A   Clear
9:55 AM 42.3 °F 37.3 °F 28.4 °F 58% 29.50 in 10.0 mi SSW 8.1 mph - N/A   Clear
10:15 AM 44.1 °F 39.0 °F 28.9 °F 55% 29.50 in 10.0 mi SW 9.2 mph - N/A   Clear
10:35 AM 46.4 °F 42.9 °F 29.1 °F 51% 29.49 in 10.0 mi SW 6.9 mph - N/A   Clear
10:55 AM 47.3 °F - 29.1 °F 49% 29.51 in 10.0 mi SW 5.8 mph - N/A   Clear
11:15 AM 49.1 °F - 29.3 °F 46% 29.50 in 10.0 mi WSW 8.1 mph - N/A   Clear
11:35 AM 51.6 °F - 29.5 °F 43% 29.49 in 10.0 mi WSW 9.2 mph - N/A   Clear
11:55 AM 53.1 °F - 30.2 °F 42% 29.48 in 10.0 mi WSW 8.1 mph - N/A   Clear
12:15 PM 51.3 °F - 30.0 °F 44% 29.46 in 10.0 mi WSW 6.9 mph - N/A   Clear
12:35 PM 51.1 °F - 30.4 °F 45% 29.47 in 10.0 mi West 5.8 mph - N/A   Clear
12:55 PM 50.4 °F - 30.9 °F 47% 29.46 in 10.0 mi West 8.1 mph - N/A   Clear
1:15 PM 50.0 °F - 30.9 °F 48% 29.46 in 10.0 mi WNW 8.1 mph - N/A   Clear
1:35 PM 49.5 °F - 31.1 °F 49% 29.46 in 10.0 mi West 6.9 mph - N/A   Clear
1:55 PM 49.8 °F - 31.8 °F 50% 29.46 in 10.0 mi West 9.2 mph - N/A   Clear
2:15 PM 49.1 °F - 31.8 °F 51% 29.47 in 10.0 mi West 10.4 mph - N/A   Clear
2:35 PM 49.3 °F - 32.0 °F 51% 29.49 in 10.0 mi WNW 9.2 mph - N/A   Clear
2:55 PM 49.6 °F - 32.2 °F 51% 29.50 in 10.0 mi WNW 10.4 mph - N/A   Clear
3:15 PM 49.5 °F - 32.4 °F 52% 29.51 in 10.0 mi West 12.7 mph - N/A   Clear
3:35 PM 48.9 °F - 32.5 °F 53% 29.52 in 10.0 mi West 8.1 mph - N/A   Clear
3:55 PM 47.3 °F - 32.5 °F 57% 29.54 in 10.0 mi WNW 4.6 mph - N/A   Clear
4:15 PM 46.4 °F 43.5 °F 32.9 °F 59% 29.55 in 10.0 mi NW 5.8 mph - N/A   Clear
4:35 PM 46.4 °F 45.2 °F 33.8 °F 62% 29.56 in 10.0 mi NW 3.5 mph - N/A   Clear
4:55 PM 45.0 °F 42.6 °F 33.3 °F 64% 29.57 in 10.0 mi WNW 4.6 mph - N/A   Clear
5:15 PM 43.9 °F 39.9 °F 33.1 °F 66% 29.59 in 10.0 mi WNW 6.9 mph - N/A   Clear
5:35 PM 43.2 °F 41.5 °F 32.9 °F 67% 29.59 in 10.0 mi WNW 3.5 mph - N/A   Clear
5:55 PM 43.9 °F - 33.3 °F 66% 29.59 in 10.0 mi Calm Calm - N/A   Clear
6:15 PM 38.5 °F 36.1 °F 31.1 °F 75% 29.61 in 10.0 mi WNW 3.5 mph - N/A   Clear
6:35 PM 41.0 °F - 32.2 °F 71% 29.61 in 10.0 mi Calm Calm - N/A   Clear
6:55 PM 40.5 °F 35.8 °F 32.2 °F 72% 29.62 in 10.0 mi West 6.9 mph - N/A   Clear
7:15 PM 40.5 °F 35.8 °F 32.0 °F 72% 29.62 in 10.0 mi West 6.9 mph - N/A   Clear
7:35 PM 39.7 °F 35.6 °F 32.0 °F 74% 29.62 in 10.0 mi WSW 5.8 mph - N/A   Clear
7:55 PM 42.3 °F 38.6 °F 32.5 °F 68% 29.62 in 10.0 mi West 5.8 mph - N/A   Scattered Clouds
8:15 PM 45.3 °F 41.6 °F 33.3 °F 63% 29.63 in 10.0 mi North 6.9 mph - N/A Rain Light Rain
8:35 PM 43.5 °F - 33.8 °F 69% 29.64 in 10.0 mi Calm Calm - N/A   Overcast
8:55 PM 42.4 °F - 34.0 °F 72% 29.64 in 10.0 mi Calm Calm - N/A   Mostly Cloudy
9:15 PM 43.3 °F 40.7 °F 33.1 °F 67% 29.64 in 10.0 mi WSW 4.6 mph - N/A   Scattered Clouds
9:35 PM 42.1 °F 39.2 °F 33.4 °F 71% 29.64 in 10.0 mi West 4.6 mph - N/A   Scattered Clouds
9:55 PM 42.8 °F 40.1 °F 33.1 °F 69% 29.65 in 10.0 mi West 4.6 mph - N/A   Scattered Clouds
10:15 PM 43.3 °F 39.2 °F 32.9 °F 67% 29.67 in 10.0 mi West 6.9 mph - N/A   Scattered Clouds
10:35 PM 45.3 °F 41.1 °F 32.0 °F 60% 29.67 in 10.0 mi West 8.1 mph - N/A   Scattered Clouds
10:55 PM 42.6 °F 38.4 °F 32.2 °F 67% 29.66 in 10.0 mi WNW 6.9 mph - N/A   Scattered Clouds
11:15 PM 42.3 °F 37.9 °F 32.0 °F 67% 29.67 in 10.0 mi West 6.9 mph - N/A   Clear
11:35 PM 42.3 °F 36.8 °F 31.6 °F 66% 29.67 in 10.0 mi West 9.2 mph - N/A   Clear
11:55 PM 41.9 °F 36.3 °F 31.1 °F 66% 29.67 in 10.0 mi West 9.2 mph - N/A   Clear